Weather History for Cork, Ireland

Change the Weather History Date:

Sunday, April 29, 2012

  Actual Average Record
Temperature  
Mean Temperature 42 °F -  
Max Temperature 47 °F 57 °F 68 °F (1999)
Min Temperature 37 °F 44 °F 33 °F (2001)
Degree Days  
Heating Degree Days 23    
Moisture  
Dew Point 32 °F    
Average Humidity 69    
Maximum Humidity 93    
Minimum Humidity 34    
Precipitation  
Precipitation 0.03 in 0.11 in - ()
Sea Level Pressure  
Sea Level Pressure 29.87 in    
Wind  
Wind Speed 17 mph ()    
Max Wind Speed 33 mph    
Max Gust Speed 48 mph    
Visibility 6.2 miles    
Events Rain    
Averages and records for this station are not official NWS values.
T = Trace of Precipitation, MM = Missing Value Source: Averaged Metar Reports

Daily Weather History Graph

Daily Weather History Graph

Search for Another Location

Airport:

Trip Planner

Search our weather history database for the weather conditions in past years. The results will help you decide how hot, cold, wet, or windy it might be!

Date:

Astronomy

Apr. 29, 2012 Rise Set
Actual Time 6:07 AM IST 8:55 PM IST
Civil Twilight 5:29 AM IST 9:34 PM IST
Nautical Twilight 4:40 AM IST 10:23 PM IST
Astronomical Twilight 3:39 AM IST 11:25 PM IST
Moon 12:40 PM IST (4/29) 2:45 AM IST (4/29)
Length of Visible Light 16h 04m
Length of Day
14h 47m
Waxing Crescent, 51% of the Moon is Illuminated
Apr 29
Waxing Crescent
May 6
Full
May 12
Last Quarter
May 21
New
May 28
First Quarter

Hourly Weather History & Observations

Time (IST) Temp. Windchill Dew Point Humidity Pressure Visibility Wind Dir Wind Speed Gust Speed Precip Events Conditions
12:00 AM 41.0 °F 34.3 °F 33.8 °F 76% 30.09 in - North 11.5 mph - N/A   Clear
12:30 AM 41.0 °F 33.5 °F 33.8 °F 76% 30.09 in - North 13.8 mph - N/A   Clear
1:00 AM 41 °F - 34 °F 66% 30.12 in 25 mi NNE 11.2 mph - -   Scattered Clouds
1:00 AM 41.0 °F 34.3 °F 33.8 °F 76% 30.09 in - NNE 11.5 mph - N/A   Clear
1:30 AM 41.0 °F 33.5 °F 33.8 °F 76% 30.06 in - NNE 13.8 mph - N/A   Clear
2:00 AM 41.0 °F 33.9 °F 33.8 °F 76% 30.06 in - NNE 12.7 mph - N/A   Clear
2:30 AM 41.0 °F 33.9 °F 33.8 °F 76% 30.06 in - NNE 12.7 mph - N/A   Clear
3:00 AM 39.2 °F 31.6 °F 33.8 °F 81% 30.06 in - North 12.7 mph - N/A   Clear
3:30 AM 39.2 °F 32.5 °F 33.8 °F 81% 30.06 in - North 10.4 mph - N/A   Clear
4:00 AM 37.4 °F 29.8 °F 33.8 °F 87% 30.06 in - North 11.5 mph - N/A   Clear
4:30 AM 37.4 °F 30.3 °F 33.8 °F 87% 30.04 in - North 10.4 mph - N/A   Clear
5:00 AM 37.4 °F 30.3 °F 33.8 °F 87% 30.04 in - North 10.4 mph - N/A   Clear
5:30 AM 37.4 °F 30.8 °F 33.8 °F 87% 30.01 in - North 9.2 mph - N/A   Clear
6:00 AM 37.4 °F 30.3 °F 33.8 °F 87% 30.01 in - North 10.4 mph - N/A   Clear
6:30 AM 37.4 °F 29.3 °F 33.8 °F 87% 29.98 in - North 12.7 mph - N/A   Clear
7:00 AM 37.4 °F 28.5 °F 32.0 °F 81% 29.98 in 6.2 mi North 15.0 mph - N/A   Partly Cloudy
7:30 AM 39.2 °F 29.8 °F 33.8 °F 81% 29.95 in 6.2 mi North 18.4 mph - N/A   Partly Cloudy
8:00 AM 39.2 °F 29.0 °F 33.8 °F 81% 29.95 in 6.2 mi North 21.9 mph - N/A   Partly Cloudy
8:30 AM 39.2 °F 28.5 °F 33.8 °F 81% 29.95 in 6.2 mi North 24.2 mph 35.7 mph N/A   Partly Cloudy
9:00 AM 41.0 °F 30.7 °F 32.0 °F 70% 29.95 in 6.2 mi North 25.3 mph - N/A   Scattered Clouds
9:30 AM 42.8 °F 34.0 °F 33.8 °F 70% 29.95 in 6.2 mi North 20.7 mph 43.7 mph N/A   Scattered Clouds
10:00 AM 42.8 °F 33.8 °F 32.0 °F 66% 29.92 in 6.2 mi North 21.9 mph - N/A   Scattered Clouds
10:30 AM 42.8 °F 33.3 °F 30.2 °F 61% 29.89 in 6.2 mi North 24.2 mph - N/A   Mostly Cloudy
11:00 AM 42.8 °F 32.7 °F 30.2 °F 61% 29.89 in 6.2 mi North 27.6 mph 40.3 mph N/A   Mostly Cloudy
11:30 AM 44.6 °F 35.1 °F 30.2 °F 57% 29.86 in 6.2 mi North 27.6 mph 40.3 mph N/A   Mostly Cloudy
12:00 PM 46.4 °F 37.0 °F 30.2 °F 53% 29.86 in 6.2 mi North 31.1 mph - N/A   Mostly Cloudy
12:30 PM 46.4 °F 37.2 °F 28.4 °F 50% 29.83 in 6.2 mi North 29.9 mph 46.0 mph N/A   Mostly Cloudy
1:00 PM 47 °F - 28 °F 34% 29.84 in 31 mi North 31.3 mph - -   Scattered Clouds
1:00 PM 46.4 °F 36.9 °F 28.4 °F 50% 29.80 in 6.2 mi North 32.2 mph 43.7 mph N/A   Mostly Cloudy
1:30 PM 46.4 °F 36.9 °F 26.6 °F 46% 29.80 in 6.2 mi North 32.2 mph 48.3 mph N/A   Mostly Cloudy
2:00 PM 46.4 °F 36.7 °F 28.4 °F 50% 29.77 in 6.2 mi North 33.4 mph - N/A   Mostly Cloudy
2:30 PM 46.4 °F 37.2 °F 28.4 °F 50% 29.77 in 6.2 mi North 29.9 mph 43.7 mph N/A   Mostly Cloudy
3:00 PM 46.4 °F 37.2 °F 28.4 °F 50% 29.77 in 6.2 mi North 29.9 mph - N/A   Mostly Cloudy
3:30 PM 46.4 °F 37.2 °F 26.6 °F 46% 29.74 in 6.2 mi North 29.9 mph - N/A   Mostly Cloudy
4:00 PM 46.4 °F 37.4 °F 28.4 °F 50% 29.74 in 6.2 mi North 28.8 mph - N/A   Mostly Cloudy
4:30 PM 46.4 °F 37.9 °F 30.2 °F 53% 29.74 in 6.2 mi North 25.3 mph 38.0 mph N/A   Mostly Cloudy
5:00 PM 46.4 °F 38.5 °F 30.2 °F 53% 29.74 in 6.2 mi North 21.9 mph - N/A   Mostly Cloudy
5:30 PM 46.4 °F 39.8 °F 28.4 °F 50% 29.74 in 6.2 mi North 16.1 mph - N/A   Mostly Cloudy
6:00 PM 46.4 °F 38.1 °F 30.2 °F 53% 29.74 in 6.2 mi North 24.2 mph - N/A   Mostly Cloudy
6:30 PM 46.4 °F 37.9 °F 28.4 °F 50% 29.71 in 6.2 mi North 25.3 mph 39.1 mph N/A   Mostly Cloudy
7:00 PM 43 °F - 33 °F 59% 29.75 in 25 mi NNE 22.4 mph - -   Mostly Cloudy
7:00 PM 42.8 °F 33.5 °F 33.8 °F 70% 29.71 in 6.2 mi NNE 23.0 mph - N/A   Mostly Cloudy
7:30 PM 41.0 °F 30.0 °F 35.6 °F 81% 29.71 in 6.2 mi North 28.8 mph - N/A Rain Light Rain
8:00 PM 41.0 °F 30.2 °F 35.6 °F 81% 29.71 in 6.2 mi North 27.6 mph - N/A   Mostly Cloudy
8:30 PM 42.8 °F 33.1 °F 35.6 °F 76% 29.71 in 6.2 mi North 25.3 mph 38.0 mph N/A   Mostly Cloudy
9:00 PM 42.8 °F 32.9 °F 33.8 °F 70% 29.71 in 6.2 mi North 26.5 mph 39.1 mph N/A   Mostly Cloudy
9:30 PM 41.0 °F 30.9 °F 35.6 °F 81% 29.71 in 6.2 mi North 24.2 mph - N/A Rain Light Rain
10:00 PM 41.0 °F 30.5 °F 35.6 °F 81% 29.71 in 6.2 mi North 26.5 mph 39.1 mph N/A Rain Light Rain
10:30 PM 39.2 °F 27.8 °F 37.4 °F 93% 29.71 in 6.2 mi North 27.6 mph - N/A Rain Light Rain
11:00 PM 39.2 °F 29.0 °F 37.4 °F 93% 29.68 in 6.2 mi North 21.9 mph - N/A Rain Light Rain
11:30 PM 41.0 °F 31.4 °F 37.4 °F 87% 29.68 in 6.2 mi North 21.9 mph - N/A   Light Drizzle